Content
SEND FEEDBACK

Daily
Averages
Monthly
Summary
United States of America

ANN ARBOR, MICHIGAN


Home > North America > United States > Michigan
Elevation: 231 meters     Latitude: 42 17N     Longitude: 083 43W

WEATHER
 
SELECT A DAY
Number of Records: 208,088;   Date Range: 1/1/95 - 11/24/14
 
SHARE

PRINT THIS DATA

[ ← Previous Day ]
WEATHER ALMANAC - 17 JANUARY, 2013
[ Next Day → ]
[ °F ]   °C
Weather ElementAverageHighLow
Temperature-0.9 °C2.8 °C (1:53 pm)-6.7 °C (9:53 pm)
Dewpoint-7.8 °C-2.8 °C (1:53 am)-15.6 °C (9:53 pm)
Humidity60.7 %75 % (1:53 am)43 % (4:53 pm)
Barometer1021.3 hPa1027.1 hPa (11:53 pm)1016.3 hPa (1:53 am)
Wind Speed17.1 km/h31.5 km/h (2:53 pm)
Wind Gust50.1 km/h (8:53 pm)
Weather ElementAverage
Visibility16.1 km
Wind DirectionNW (309.6 °)

Weather ElementTotal
Precipitation---
Heating Degree Days20.3 (Base 18.3)
Averaged from 24 records on 17 January, 2013
WEATHER CONDITIONS BREAKOUT
WIND DIRECTION BREAKOUT
WEATHER BY HOUR - 17 JANUARY, 2013
[ °F ]   °C
Local TimeTemperatureDewpointHumidityBarometerVisibilityWind DirectionWind SpeedGust SpeedPrecipitationEventsConditions
1:53 AM1.1 °C-2.8 °C75 %1016.3 hPa16.1 kmWNW (290°)14.8 km/hOvercast
2:53 AM1.7 °C-3.3 °C70 %1017.3 hPa16.1 kmWNW (300°)20.4 km/hOvercast
3:34 AM1 °C-3 °C75 %1016.6 hPa16.1 kmWNW (300°)13 km/hOvercast
3:53 AM1.1 °C-3.3 °C73 %1017.6 hPa16.1 kmWNW (300°)11.1 km/hOvercast
4:53 AM1.1 °C-3.3 °C73 %1018.3 hPa16.1 kmWNW (300°)11.1 km/hOvercast
5:14 AM1 °C-3 °C75 %1017.9 hPa16.1 kmWNW (290°)7.4 km/hOvercast
5:53 AM0 °C-3.9 °C75 %1019.3 hPa16.1 kmWNW (300°)7.4 km/hPartly Cloudy
7:53 AM-0.6 °C-5 °C72 %1020.3 hPa16.1 kmNW (310°)9.3 km/hClear
8:53 AM-1.1 °C-6.1 °C69 %1021.3 hPa16.1 kmNNW (330°)11.1 km/hClear
9:53 AM0 °C-5.6 °C66 %1022.4 hPa16.1 kmNorth (350°)16.7 km/hClear
10:53 AM1.1 °C-6.1 °C59 %1022.7 hPa16.1 kmNNW (340°)16.7 km/hClear
11:53 AM1.7 °C-7.2 °C52 %1022 hPa16.1 kmNNW (330°)18.5 km/hScattered Clouds
12:53 PM2.2 °C-7.2 °C50 %1021 hPa16.1 kmWNW (290°)20.4 km/h35.2 km/hClear
1:53 PM2.8 °C-7.2 °C48 %1020.3 hPa16.1 kmNW (320°)20.4 km/h33.3 km/hScattered Clouds
2:53 PM2.2 °C-7.8 °C48 %1020 hPa16.1 kmWNW (290°)31.5 km/h40.7 km/hClear
3:53 PM1.1 °C-8.9 °C48 %1020.7 hPa16.1 kmWNW (300°)22.2 km/h44.4 km/hClear
4:53 PM-0.6 °C-11.7 °C43 %1021.7 hPa16.1 kmWNW (300°)20.4 km/h44.4 km/hPartly Cloudy
5:53 PM-2.2 °C-10.6 °C53 %1023 hPa16.1 kmNW (310°)24.1 km/h35.2 km/hClear
6:53 PM-4.4 °C-11.1 °C60 %1024.4 hPa16.1 kmNW (320°)16.7 km/h31.5 km/hPartly Cloudy
7:53 PM-5.6 °C-12.2 °C60 %1025.7 hPa16.1 kmNW (310°)20.4 km/hPartly Cloudy
8:53 PM-6.1 °C-14.4 °C53 %1026.4 hPa16.1 kmNW (320°)29.6 km/h50.1 km/hClear
9:53 PM-6.7 °C-15.6 °C50 %1026.8 hPa16.1 kmNW (320°)20.4 km/h35.2 km/hScattered Clouds
10:53 PM-6.1 °C-14.4 °C53 %1026.8 hPa16.1 kmNW (310°)14.8 km/hOvercast
11:53 PM-6.7 °C-13.9 °C57 %1027.1 hPa16.1 kmWNW (300°)11.1 km/hOvercast
Hourly data recorded from KARB, located 0 kilometers away from Ann Arbor, Michigan







STORIES FROM OUR PARTNERS